Station SDBC1 - 9410170 - San Diego, CA Image indicating link to RSS feed of recent meteorological observations for station SDBC1


Conditions at SDBC1 as of
(11:00 am PDT)
1800 GMT on 04/19/2024:
Note: This report is more than two hours old
     

Click on the graph icon in the table below to see a time series plot of the last five days of that observation.

5-day plot - Atmospheric Pressure Atmospheric Pressure (PRES):29.99 in
5-day plot - Pressure Tendency Pressure Tendency (PTDY):+0.01 in ( Rising )
5-day plot - Water Temperature Water Temperature (WTMP): 63.5 °F
NOS Water Level Observation Network Water Level
Previous observations
TIME
(PDT)
5-day plot - Wind Direction
WDIR
 
5-day plot - Wind Speed
WSPD
kts
5-day plot - Wind Gust
GST
kts
5-day plot - Wave Height
WVHT
ft
5-day plot - Dominant Wave Period
DPD
sec
5-day plot - Average Wave Period
APD
sec
5-day plot - Mean Wave Direction
MWD
 
5-day plot - Atmospheric Pressure
PRES
in
5-day plot - Pressure Tendency
PTDY
in
5-day plot - Air Temperature
ATMP
°F
5-day plot - Water Temperature
WTMP
°F
5-day plot - Dew Point
DEWP
°F
5-day plot - Salinity
SAL
psu
5-day plot - Visibility
VIS
nmi
5-day plot - Tide (above MLLW)
TIDE
ft
2024-04-19 10:54 am-------30.00-- 63.5----
2024-04-19 10:48 am-------30.00-- 63.7----
2024-04-19 10:42 am-------30.00-- 63.7----
2024-04-19 10:36 am-------30.00-- 63.7----
2024-04-19 10:30 am-------30.00-- 63.5----
2024-04-19 10:24 am-------29.99-- 63.5----
2024-04-19 10:18 am-------29.99-- 63.7----
2024-04-19 10:12 am-------29.99-- 63.7----
2024-04-19 10:06 am-------29.99-- 63.7----
2024-04-19 10:00 am-------29.99+0.02- 63.7----
2024-04-19 09:54 am-------29.99-- 63.5----
2024-04-19 09:48 am-------29.99-- 63.3----
2024-04-19 09:42 am-------29.99-- 63.3----
2024-04-19 09:36 am-------29.99-- 63.5----
2024-04-19 09:30 am-------29.99-- 63.5----
2024-04-19 09:24 am-------29.99-- 63.5----
2024-04-19 09:18 am-------29.99-- 63.5----
2024-04-19 09:12 am-------29.99-- 63.7----
2024-04-19 09:06 am-------29.99-- 63.7----
2024-04-19 09:00 am-------29.98+0.04- 63.7----
2024-04-19 08:54 am-------29.98-- 63.7----
2024-04-19 08:48 am-------29.98-- 63.7----
2024-04-19 08:42 am-------29.98-- 63.5----
2024-04-19 08:36 am-------29.98-- 63.5----
2024-04-19 08:30 am-------29.98-- 63.3----
2024-04-19 08:24 am-------29.98-- 63.3----
2024-04-19 08:18 am-------29.98-- 63.1----
2024-04-19 08:12 am-------29.98-- 63.3----
2024-04-19 08:06 am-------29.98-- 63.3----
2024-04-19 08:00 am-------29.98+0.03- 63.3----
2024-04-19 07:54 am-------29.98-- 63.3----
2024-04-19 07:48 am-------29.97-- 63.3----
2024-04-19 07:42 am-------29.98-- 63.3----
2024-04-19 07:36 am-------29.97-- 63.3----
2024-04-19 07:30 am-------29.97-- 63.3----
2024-04-19 07:24 am-------29.97-- 63.5----
2024-04-19 07:18 am-------29.97-- 63.5----
2024-04-19 07:12 am-------29.97-- 63.5----
2024-04-19 07:06 am-------29.97-- 63.5----
2024-04-19 07:00 am-------29.96+0.01- 63.5----
2024-04-19 06:54 am-------29.96-- 63.5----
2024-04-19 06:48 am-------29.96-- 63.5----
2024-04-19 06:42 am-------29.96-- 63.3----
2024-04-19 06:36 am-------29.96-- 63.3----
2024-04-19 06:30 am-------29.96-- 63.3----
2024-04-19 06:24 am-------29.96-- 63.3----
2024-04-19 06:18 am-------29.96-- 63.3----
2024-04-19 06:12 am-------29.96-- 63.3----
2024-04-19 06:06 am-------29.95-- 63.3----
2024-04-19 06:00 am-------29.95+0.00- 63.1----
2024-04-19 05:54 am-------29.95-- 63.1----
2024-04-19 05:48 am-------29.95-- 63.1----
2024-04-19 05:42 am-------29.95-- 63.3----
2024-04-19 05:36 am-------29.95-- 63.5----
2024-04-19 05:30 am-------29.95-- 63.5----
2024-04-19 05:24 am-------29.95-- 63.7----
2024-04-19 05:18 am-------29.95-- 63.7----
2024-04-19 05:12 am-------29.95-- 63.7----
2024-04-19 05:06 am-------29.95-- 63.9----
2024-04-19 05:00 am-------29.95-0.02- 63.9----
2024-04-19 04:54 am-------29.94-- 63.9----
2024-04-19 04:48 am-------29.95-- 63.9----
2024-04-19 04:42 am-------29.95-- 63.9----
2024-04-19 04:36 am-------29.95-- 63.9----
2024-04-19 04:30 am-------29.95-- 63.9----
2024-04-19 04:24 am-------29.95-- 64.0----
2024-04-19 04:18 am-------29.95-- 64.2----
2024-04-19 04:12 am-------29.95-- 64.2----
2024-04-19 04:06 am-------29.95-- 64.4----
2024-04-19 04:00 am-------29.95-0.04- 64.4----
2024-04-19 03:54 am-------29.95-- 64.4----
2024-04-19 03:48 am-------29.95-- 64.4----
2024-04-19 03:42 am-------29.95-- 64.4----
2024-04-19 03:36 am-------29.95-- 64.4----
2024-04-19 03:30 am-------29.96-- 64.4----
2024-04-19 03:24 am-------29.96-- 64.4----
2024-04-19 03:18 am-------29.96-------
2024-04-19 03:12 am-------29.96-- 64.4----
2024-04-19 03:06 am-------29.96-- 64.4----
2024-04-19 03:00 am-------29.96-0.04- 64.4----
2024-04-19 02:54 am-------29.96-- 64.4----
2024-04-19 02:48 am-------29.96-- 64.4----
2024-04-19 02:42 am-------29.96-- 64.4----
2024-04-19 02:36 am-------29.96-- 64.4----
2024-04-19 02:30 am-------29.96-- 64.4----
2024-04-19 02:24 am-------29.97-- 64.4----
2024-04-19 02:18 am-------29.97-------
2024-04-19 02:12 am-------29.97-- 64.4----
2024-04-19 02:06 am-------29.97-- 64.4----
2024-04-19 02:00 am-------29.97-0.02- 64.4----
2024-04-19 01:54 am-------29.97-- 64.4----
2024-04-19 01:48 am-------29.97-- 64.4----
2024-04-19 01:42 am-------29.98-- 64.2----
2024-04-19 01:36 am-------29.98-- 64.2----
2024-04-19 01:30 am-------29.99-- 64.2----
2024-04-19 01:24 am-------29.99-- 64.2----
2024-04-19 01:18 am-------29.99-- 64.0----
2024-04-19 01:12 am-------29.99-- 63.9----
2024-04-19 01:06 am-------29.99-- 63.9----
2024-04-19 01:00 am-------29.99-- 63.9----
2024-04-19 12:54 am-------29.99-- 63.9----
2024-04-19 12:48 am-------29.99-- 64.0----
2024-04-19 12:42 am-------29.99-- 64.0----
2024-04-19 12:36 am-------29.99-- 64.0----
2024-04-19 12:30 am-------30.00-- 64.0----
2024-04-19 12:24 am-------30.00-- 64.0----
2024-04-19 12:18 am-------30.00-- 64.0----
2024-04-19 12:12 am-------30.00-- 63.9----
2024-04-19 12:06 am-------29.99-- 63.9----
2024-04-19 12:00 am-------29.99-- 63.9----
2024-04-18 11:54 pm-------29.99-- 63.9----
2024-04-18 11:48 pm-------29.99-- 63.9----
2024-04-18 11:42 pm-------29.99-- 63.9----
2024-04-18 11:36 pm-------29.99-- 63.9----
2024-04-18 11:30 pm-------29.99-- 63.9----
2024-04-18 11:24 pm-------30.00-- 63.9----
2024-04-18 11:18 pm-------30.00-- 64.0----
2024-04-18 11:12 pm-------30.00-- 64.0----
2024-04-18 11:06 pm-------30.00-- 64.0----
2024-04-18 11:00 pm-------30.00-- 64.0----
2024-04-18 10:54 pm-------29.99-- 64.0----
2024-04-18 10:48 pm-------30.00-- 64.2----